Theta_e
315 315 314 313 313 313 311 310 314 317 317 315 316 317 318 317 316 317 316 317 317 318 320 321 321 322 321 315 315 313 315 316 312 311 308 304 304 303 301 300 299 299 298 298 297
314 315 314 312 312 312 311 315 316 315 316 317 317 317 318 319 318 316 318 318 318 318 319 320 318 317 314 314 314 313 313 314 311 307 306 305 304 303 301 300 299 298 298 298 298
314 315 313 311 312 311 314 315 315 318 318 317 317 317 318 321 314 315 318 318 320 320 320 320 319 316 314 313 311 311 311 310 307 306 305 304 303 303 301 301 300 298 297 297 297
314 314 312 311 311 313 315 316 317 317 316 316 316 317 316 317 316 317 317 318 320 321 321 320 315 314 311 312 312 311 310 310 309 307 305 304 302 300 301 300 298 298 297 297 296
314 314 311 311 312 314 315 316 317 316 315 315 317 317 317 312 315 317 317 319 320 321 318 315 315 313 313 311 310 308 307 305 304 303 302 302 301 300 299 298 299 298 298 296 296
314 313 310 312 314 314 315 317 315 315 316 316 317 316 315 314 316 317 316 319 319 320 317 316 314 311 309 309 310 307 305 304 303 303 302 301 300 301 300 298 298 297 296 296 296
314 312 311 313 314 317 316 315 315 316 316 316 317 317 313 314 316 316 315 316 317 318 315 314 314 311 308 308 306 305 305 306 304 302 303 300 302 300 299 298 298 296 295 296 296
314 311 313 315 317 316 315 316 316 316 316 316 317 316 314 316 316 317 317 317 317 317 316 314 313 309 308 306 308 308 308 310 306 304 303 305 307 300 298 297 297 295 294 295 296
314 312 315 316 316 316 316 316 316 317 317 317 318 315 315 315 316 316 315 316 316 316 316 315 313 309 310 310 312 310 314 314 310 305 304 305 305 300 297 297 296 294 293 294 294
313 312 315 316 316 316 317 316 316 317 317 317 315 312 313 313 314 314 315 316 316 315 314 313 309 308 307 310 316 315 313 313 312 307 306 304 303 299 298 297 295 294 293 294 294
312 312 315 316 316 317 318 320 313 311 314 313 313 312 313 315 314 314 314 314 315 311 313 309 308 309 311 311 311 312 311 313 310 308 308 307 301 299 298 297 294 294 294 294 294
314 315 316 316 317 318 321 317 316 314 313 313 313 313 314 314 313 312 314 311 311 312 311 309 310 310 310 309 311 312 311 310 308 307 307 305 302 299 298 298 295 295 295 294 293
315 315 317 317 318 318 319 320 321 317 312 315 313 313 314 313 312 312 312 313 310 309 308 310 310 311 311 309 309 310 311 310 308 307 306 306 303 300 299 298 297 297 295 294 293
316 317 317 319 320 318 320 321 319 318 310 313 315 314 313 313 314 314 313 313 313 311 311 311 311 311 310 311 309 311 309 308 308 307 308 306 308 300 299 298 298 296 293 293 292
317 317 317 320 320 321 320 320 318 317 318 315 316 315 313 313 313 313 312 311 313 312 314 313 311 310 310 311 310 308 309 309 310 309 308 307 306 304 298 298 298 294 293 292 292
317 318 319 321 320 319 319 318 316 316 317 317 316 316 315 313 314 313 310 309 311 312 310 311 311 309 309 309 310 309 308 307 307 307 310 308 308 305 299 299 297 294 292 292 291
318 318 319 319 321 318 317 316 316 317 316 317 317 316 315 314 314 314 310 308 310 315 313 313 312 308 308 308 307 306 305 309 310 310 312 306 307 305 298 296 295 294 292 291 291
318 318 318 317 317 317 318 313 318 316 317 315 316 315 315 315 315 312 312 310 308 310 310 311 310 309 307 307 306 308 306 307 312 309 307 305 307 303 296 295 295 293 291 291 290
318 318 318 317 317 317 313 317 315 317 316 316 316 317 317 316 315 312 311 311 310 307 313 308 312 308 308 307 305 307 305 304 305 303 304 304 302 299 296 295 293 292 292 291 290
319 320 318 317 316 318 313 316 315 314 315 316 318 316 317 316 316 314 314 310 311 308 306 308 309 310 309 307 307 306 303 307 303 308 309 304 303 305 296 296 294 293 292 291 290
320 317 319 316 319 312 317 315 315 314 314 317 317 316 316 316 315 314 314 310 307 308 305 305 307 309 308 309 308 306 306 303 301 301 305 304 304 299 297 296 294 292 292 290 288
320 318 317 318 316 310 314 315 314 315 314 316 315 315 316 316 316 315 315 311 305 305 308 304 304 307 309 305 303 305 306 302 304 306 299 299 301 297 295 294 293 292 291 289 286
316 314 319 320 316 313 314 315 314 316 315 316 315 314 314 315 316 315 312 305 304 306 307 305 306 307 308 307 303 304 304 301 298 297 300 302 305 294 293 293 293 291 290 288 284
316 313 312 312 311 312 314 315 315 313 313 313 313 313 314 315 314 314 313 308 304 305 304 303 305 306 308 308 307 306 303 301 300 299 300 299 301 295 293 293 292 291 289 286 282
315 319 312 315 315 313 314 314 315 315 313 313 314 315 315 315 315 315 313 308 306 308 305 303 307 307 306 306 306 305 305 301 300 300 302 304 300 299 294 292 292 290 289 286 282
314 315 311 313 314 315 315 315 315 314 313 315 314 313 313 315 313 314 313 310 311 304 304 301 306 304 304 304 303 303 302 302 301 301 298 301 301 295 290 290 290 289 289 286 281
315 313 312 312 314 313 314 314 315 311 310 308 312 311 311 309 306 304 302 301 305 304 303 304 303 302 306 302 304 309 309 302 301 300 300 301 299 291 292 293 291 289 288 283 280
Wind_Speed
9 10 10 10 11 12 11 12 12 11 11 11 11 10 9 10 24 19 16 14 16 18 16 14 24 13 20 7 9 4 5 3 6 7 5 8 4 4 4 8 6 6 7 13 17
9 10 10 10 12 12 13 13 11 13 13 10 8 7 7 6 5 23 21 21 17 15 12 15 8 20 6 7 6 6 5 0 2 4 7 6 5 5 5 7 7 7 12 21 22
9 9 10 12 12 13 13 15 15 11 8 7 7 7 6 2 5 7 21 20 14 10 7 5 7 7 8 5 7 5 5 4 6 11 7 6 4 4 12 4 2 8 6 17 20
9 10 11 13 14 15 16 14 9 8 7 7 7 6 13 3 4 13 19 18 13 6 7 6 7 6 6 6 4 7 5 6 6 6 5 4 4 5 3 5 9 12 17 17 15
9 11 12 15 15 15 13 8 7 7 8 8 7 6 5 7 4 17 15 13 13 13 22 7 9 5 6 7 10 9 4 7 7 10 7 7 5 6 7 8 17 17 16 14 15
10 13 14 16 15 13 9 7 8 8 12 15 11 11 6 13 10 13 11 14 18 17 7 9 5 9 7 5 5 5 10 8 6 6 5 10 6 4 4 7 8 9 8 12 13
13 15 16 16 14 11 9 8 8 8 7 9 6 13 16 3 12 9 13 14 16 16 11 19 16 7 6 6 3 8 6 4 2 5 4 11 2 3 7 8 8 8 8 10 11
17 17 17 15 13 10 9 8 7 7 7 7 10 11 4 5 8 10 9 14 13 18 26 22 22 12 6 7 4 5 4 2 5 7 6 2 3 5 7 9 8 7 7 6 7
18 18 17 14 11 10 8 8 7 4 5 7 5 5 3 6 6 10 10 6 4 16 18 18 13 6 3 5 4 1 2 3 2 9 5 5 3 7 7 8 8 7 7 7 6
18 18 16 13 11 8 7 10 20 9 6 7 7 6 6 4 5 10 7 5 2 2 4 7 6 5 4 4 2 3 2 2 3 6 5 6 4 6 7 8 9 7 7 6 6
16 16 14 11 10 7 5 3 5 7 13 3 1 4 2 6 5 12 15 4 3 6 3 5 7 3 1 2 4 2 2 2 1 3 5 7 5 10 8 5 7 6 6 6 7
16 14 12 11 9 6 5 5 3 5 5 4 3 3 2 2 5 16 16 5 6 3 2 6 3 2 3 4 1 1 1 0 2 3 3 3 5 5 5 4 7 8 6 7 5
14 14 11 9 3 7 11 6 4 3 5 3 2 3 3 6 3 7 7 2 5 7 6 5 1 4 1 5 6 2 3 2 5 1 2 1 1 4 2 3 6 5 5 6 6
13 12 8 4 4 3 4 4 4 1 4 7 5 4 4 4 6 4 5 2 5 4 3 4 4 4 4 3 1 1 4 1 3 2 2 1 4 5 5 5 6 4 6 6 6
11 8 5 3 5 3 1 3 5 1 4 3 4 1 4 5 1 7 8 6 3 3 3 1 4 5 5 2 0 5 3 3 2 2 2 1 2 3 6 6 8 6 6 6 5
8 6 4 3 5 3 0 6 2 5 1 2 2 1 3 6 4 4 7 9 3 4 6 2 1 2 2 3 3 5 3 5 4 3 2 4 4 4 6 6 4 5 6 7 6
6 4 3 3 1 2 2 3 4 5 1 1 1 3 3 4 4 4 5 7 3 2 4 3 2 4 3 4 3 7 5 4 5 4 5 3 1 7 5 4 7 9 7 6 5
5 3 4 5 4 3 2 5 5 3 2 2 1 2 3 0 2 5 3 3 5 3 3 1 4 2 4 2 1 3 3 4 4 3 5 0 5 5 5 5 5 7 7 6 4
6 3 1 3 4 1 5 4 5 3 1 5 2 2 2 2 1 5 3 1 0 2 2 1 3 1 1 0 2 2 3 2 1 2 1 3 4 2 3 4 5 7 6 5 4
4 2 1 3 3 2 5 3 3 0 1 1 2 1 2 2 2 3 0 1 1 1 1 2 3 2 0 0 1 0 4 1 3 4 5 5 6 5 7 10 7 7 6 5 4
2 3 2 2 1 5 3 4 2 2 2 2 2 2 2 2 2 2 1 1 1 3 1 0 2 2 2 3 3 1 1 3 3 4 3 4 6 4 8 9 9 7 6 6 5
3 1 3 1 4 2 3 1 1 1 3 2 4 3 2 2 2 2 4 0 1 1 1 1 3 4 5 0 1 2 3 3 4 4 2 2 7 2 5 7 7 7 6 5 5
2 1 1 1 3 1 1 2 2 1 1 2 2 1 1 3 1 1 3 1 2 1 2 1 1 4 7 2 2 3 3 3 4 3 4 3 6 2 4 6 6 9 7 6 5
3 2 4 4 1 7 5 3 1 1 1 2 3 1 3 2 3 4 2 2 0 1 2 1 2 5 6 6 2 4 4 5 5 3 3 7 7 6 7 7 7 7 6 6 4
3 3 2 3 1 4 3 5 4 3 1 1 2 2 4 3 1 2 2 1 1 0 1 2 3 3 6 9 4 6 8 8 8 6 6 6 7 4 10 10 9 7 6 6 4
3 3 2 1 2 6 2 6 7 2 2 3 5 4 2 4 5 5 5 4 3 0 1 1 2 2 5 2 2 7 8 9 9 3 11 15 18 4 5 8 6 8 7 5 4
2 2 4 2 2 4 4 6 8 7 0 2 2 5 4 5 3 2 4 4 3 6 4 2 1 3 5 6 8 5 5 5 5 6 6 6 6 7 5 8 8 7 6 6 5
Wind_Direction
110 109 115 115 121 122 124 125 121 113 102 95 86 70 59 72 51 58 35 350 344 358 13 56 54 75 56 50 42 76 65 92 161 159 159 155 108 354 32 78 43 61 74 105 78
112 113 121 123 124 128 129 124 118 108 98 84 62 37 15 16 34 39 6 360 351 346 6 25 13 49 49 22 28 63 83 128 343 99 142 108 105 126 86 75 67 83 82 82 67
119 121 123 121 129 132 125 119 112 95 76 51 29 9 354 346 56 342 5 5 5 356 22 54 72 61 57 27 3 37 109 104 40 94 96 107 68 100 124 55 119 124 112 85 80
130 128 121 126 133 128 125 117 97 70 54 41 39 30 54 66 74 339 3 5 13 22 87 96 39 58 67 47 10 96 60 100 147 121 95 94 96 78 32 128 142 132 124 103 89
136 124 124 129 130 130 125 110 88 73 60 44 36 59 48 52 47 350 6 23 58 95 96 95 67 100 92 115 64 76 115 61 103 86 75 98 90 123 113 135 130 126 119 115 103
139 129 130 129 131 129 123 113 96 78 68 64 68 72 69 72 351 2 17 52 70 90 84 76 107 111 86 57 66 89 94 111 86 90 113 115 141 97 206 151 135 125 123 128 122
141 136 134 133 133 130 129 115 94 79 60 58 56 69 62 79 21 29 43 46 51 94 89 107 123 75 119 93 115 112 83 80 138 167 129 138 105 157 167 156 148 141 143 125 120
141 140 139 136 136 132 127 101 79 68 55 53 76 65 83 13 29 51 30 42 72 85 94 89 85 89 73 132 67 77 88 121 198 178 180 205 225 205 177 150 161 155 138 138 125
142 142 142 139 137 129 108 81 68 64 44 36 68 79 14 345 20 11 5 3 40 85 101 88 74 95 90 92 60 200 231 203 184 199 142 196 215 214 177 155 165 164 159 151 133
142 144 143 138 133 121 108 78 69 76 45 71 77 56 357 306 332 351 6 355 357 41 26 42 58 76 41 67 202 212 232 200 218 213 189 186 229 194 196 164 168 165 170 155 132
140 144 142 136 124 92 25 334 27 4 33 71 181 98 333 326 42 5 356 1 42 46 62 19 67 86 231 249 241 234 224 201 224 200 182 218 170 194 193 130 149 177 174 159 127
140 142 137 130 123 41 28 75 98 147 69 18 59 48 14 9 31 349 8 70 46 48 352 32 69 244 277 4 328 238 148 325 298 217 165 156 210 202 186 175 171 179 176 155 131
135 131 127 123 105 52 89 72 44 124 93 351 64 47 326 47 60 322 20 25 92 49 30 108 253 311 128 31 27 35 137 195 228 186 249 318 343 159 196 129 188 198 116 123 133
132 133 125 112 99 108 64 45 353 11 78 318 344 347 7 112 24 319 15 99 44 145 124 84 340 34 59 80 46 337 194 223 285 89 267 96 284 227 194 199 216 130 138 135 137
128 137 101 91 120 84 85 353 347 127 59 332 338 336 33 86 230 345 28 30 83 28 103 278 9 15 39 286 72 237 190 232 206 180 16 204 89 250 139 226 225 178 166 147 159
127 133 127 94 78 85 327 336 111 48 78 339 329 348 44 12 18 322 22 34 76 76 37 95 350 69 269 289 231 306 73 41 50 82 339 207 158 237 187 209 161 178 160 160 156
139 107 100 64 74 8 322 38 49 97 297 280 83 66 78 10 26 43 45 24 52 65 4 353 340 325 28 337 19 24 39 349 355 3 233 160 128 261 205 207 160 170 168 166 149
161 154 88 58 19 22 76 54 83 179 218 238 122 78 89 355 25 19 71 43 30 42 71 86 329 15 3 76 249 345 109 138 286 271 287 143 240 293 182 178 144 137 149 145 143
162 163 122 2 7 30 74 59 184 199 235 147 73 98 355 356 116 81 58 107 291 46 144 69 262 128 138 42 124 1 39 186 224 31 13 255 284 236 161 203 151 146 146 151 134
170 156 60 360 15 82 76 180 183 178 353 168 150 181 149 310 97 83 338 314 335 67 147 197 327 186 242 21 233 176 175 14 21 319 298 287 284 246 220 216 186 166 164 150 122
144 65 359 6 54 51 127 198 172 238 192 121 154 108 94 112 65 74 195 341 354 313 2 71 113 285 22 193 189 10 307 69 126 146 219 298 269 214 214 191 184 169 166 162 143
103 73 1 17 55 37 124 122 190 179 0 70 96 91 105 57 72 132 198 216 333 306 166 40 145 266 232 191 193 244 244 138 127 269 232 156 269 19 157 158 144 158 154 147 135
103 209 344 8 136 73 212 58 60 149 10 93 115 81 85 113 106 165 154 121 23 60 189 137 294 344 348 14 14 235 211 144 105 75 228 158 268 143 122 123 139 149 156 152 133
95 86 329 50 81 134 144 149 136 315 110 85 129 134 104 96 32 193 160 222 11 102 131 115 178 189 210 228 157 248 203 183 138 150 219 233 282 203 199 161 157 157 157 145 134
41 224 208 192 259 127 121 139 150 186 343 171 77 157 136 139 114 217 130 147 282 108 113 116 240 225 256 271 246 246 230 195 196 199 190 271 225 211 198 178 179 166 157 156 147
141 137 20 62 100 112 130 202 169 192 154 229 162 147 111 161 189 206 160 192 215 170 207 31 265 352 291 297 330 278 244 216 227 228 258 269 279 144 105 108 146 170 170 162 156
155 129 109 298 118 116 209 183 191 143 125 33 149 114 128 172 141 100 90 79 168 160 181 128 88 42 270 340 323 321 238 199 213 209 183 226 236 149 156 168 171 178 172 169 166